Location: Kellogg
(38.0159°N, 90.0546°W)
Time: 23:01:54
(UTC+00:00)

Transit 4A - Pass Details

Date: 13 September 2024
Orbit: 864 x 978 km, 66.8° (Epoch: 12 October)

Event Time Altitude Azimuth Distance (km) Brightness Sun altitude
Rises 07:50:16 0° 169° (S) 3,431 - -40.7°
Reaches altitude 10° 07:53:14 10° 155° (SSE) 2,505 - -40.4°
Maximum altitude 07:57:35 22° 106° (ESE) 1,801 - -39.8°
Exits shadow 07:59:09 20° 83° (E) 1,917 9.9 -39.6°
Drops below altitude 10° 08:02:00 10° 56° (ENE) 2,554 10.9 -39.2°
Sets 08:05:02 0° 43° (NE) 3,516 11.8 -38.8°
